Flag for United Arab Emirates Weather past 2 weeks in Abu Dhabi, Abu Dhabi, United Arab Emirates

Now
79 °F

Passing clouds.


Feels Like: 81 °F
Forecast: 81 / 91 °F
Wind: 7 mph from West

Location: Abu Dhabi Bateen Airport

Current Time: Apr 26, 2015 at 7:40:52 AM

Latest Report: Apr 26, 2015 at 7:00 AM


Visibility: N/A

Pressure: 29.83 "Hg

Humidity: 65%

Dew point: 66 °F

Location of Abu DhabiLocation

Historic Weather in Abu Dhabi — Graph

°F

Abu Dhabi temperature yesterday

Maximum temperature yesterday: 90 °F (at 12:00 PM)
Minimum temperature yesterday: 79 °F (at 5:00 AM)
Average temperature yesterday: 83 °F

Past Weeks' High & Low Weather Summary

 TemperatureHumidityPressure
High109 °F (Apr 24, 2:00 PM)94% (Apr 22, 7:00 AM)30.01 "Hg (Apr 22, 7:00 AM)
Low68 °F (Apr 22, 7:00 AM)7% (Apr 24, 11:00 AM)29.74 "Hg (Apr 18, 5:00 PM)
Average84 °F48%29.85 "Hg
* Reported Apr 11 6:00 AM — Apr 26 6:00 AM, Abu Dhabi, Weather by CustomWeather, © 2015

Note: Actual official high and low records may vary slightly from our data, if they occured in-between our weather recording intervals... More about our weather records

Advertising

Abu Dhabi weather history for previous 24 hours

 ConditionsComfort  
Time TempWeatherWind HumidityBarometerVisibility
6:00 AM
Sun, Apr 26
77 °FPassing clouds.6 mph69%29.83 "HgN/A
5:00 AM77 °FPassing clouds.5 mph69%29.80 "HgN/A
4:00 AM77 °FClear.7 mph69%29.80 "Hg10 mi
3:00 AM77 °FPassing clouds.6 mph74%29.80 "HgN/A
2:00 AM77 °FPassing clouds.7 mph74%29.83 "HgN/A
1:00 AM79 °FPassing clouds.8 mph70%29.83 "HgN/A
12:00 AM79 °FClear.8 mph70%29.83 "Hg10 mi
11:00 PM
Sat, Apr 25
79 °FClear.10 mph70%29.83 "Hg5 mi
10:00 PM79 °FClear.8 mph70%29.83 "Hg5 mi
9:00 PM79 °FClear.9 mph70%29.83 "Hg5 mi
8:00 PM81 °FClear.10 mph70%29.80 "Hg5 mi
7:00 PM81 °FClear.10 mph70%29.80 "Hg5 mi
6:00 PM82 °FClear.14 mph66%29.77 "Hg5 mi
5:00 PM84 °FClear.15 mph58%29.77 "Hg5 mi
4:00 PM86 °FClear.16 mph55%29.77 "Hg4 mi
3:00 PM88 °FClear.15 mph49%29.80 "Hg4 mi
2:00 PM88 °FClear.12 mph52%29.80 "Hg4 mi
1:00 PM88 °FClear.12 mph52%29.83 "Hg4 mi
12:00 PM90 °FClear.12 mph46%29.83 "Hg4 mi
11:00 AM88 °FDuststorm.N/A55%29.86 "Hg3 mi
10:00 AM86 °FDuststorm.12 mph59%29.86 "Hg3 mi
9:00 AM86 °FClear.10 mph59%29.86 "Hg4 mi
8:00 AM84 °FClear.7 mph70%29.83 "Hg4 mi
7:00 AM82 °FClear.7 mph66%29.80 "Hg5 mi
Weather by CustomWeather, © 2015

See weather overviewHow to use our weather pages